Orbital Elements
Epoch 2021 July 5.0 TT = JDT 2459400.5
T 2021 July 17.90871 TT Rudenko
q 5.1485970 (2000.0) P Q
n 0.03451690 Peri. 256.99459 -0.17033405 -0.98048715
a 9.3421798 Node 203.50806 +0.97226972 -0.15103508
e 0.4488870 Incl. 14.24316 +0.16024328 -0.12583063
P 28.6
From 290 observations 2019 Sept. 22-2021 Mar. 14, mean residual 0".5.
|